Probability
0 0 0 0 0 0 0 0 0 0 0 0 0 0 0 0 0 0 0 0 0 0 0 0 0 0 0 0 0 0 0 0 0 0 0 0 0 0
0 0 0 0 0 0 0 0 0 0 0 0 0 0 0 0 0 0 0 0 0 0 0 0 0 0 0 0 0 0 0 0 0 0 0 0 0 0
0 0 0 0 0 0 0 0 0 0 0 0 0 0 0 0 0 0 0 0 0 0 0 0 0 0 0 0 0 0 0 0 0 0 0 0 0 0
0 0 0 0 0 0 0 0 0 0 0 0 0 0 0 0 0 0 0 0 0 0 0 0 0 0 0 0 0 0 0 0 0 0 0 0 0 0
0 0 0 0 0 0 0 0 0 0 0 0 0 0 0 0 0 0 0 0 0 0 0 0 0 0 0 0 0 0 0 0 0 0 0 0 0 0
0 0 0 0 0 0 0 0 0 0 0 0 0 0 0 0 0 0 0 0 0 0 0 0 0 0 0 0 0 0 0 0 0 0 0 0 0 0
0 0 0 0 0 0 0 0 0 0 0 0 0 0 0 0 0 0 0 0 0 0 0 0 0 0 0 0 0 0 0 0 0 0 0 0 0 0
0 0 0 0 0 0 0 0 0 0 0 0 0 0 0 0 0 0 0 0 0 0 0 0 0 0 0 0 0 0 0 0 0 0 0 0 0 0
0 0 0 0 0 0 0 0 0 0 0 0 0 0 0 0 0 0 0 0 0 0 0 0 0 0 0 0 0 0 0 0 0 0 0 0 0 0
0 0 0 0 0 0 0 0 0 0 0 0 0 0 0 0 0 0 0 0 0 0 0 0 0 0 0 0 0 0 0 0 0 0 0 0 0 0
0 0 0 0 0 0 0 0 0 0 0 0 0 0 0 0 0 0 0 0 0 0 0 0 0 0 0 0 0 0 0 0 0 0 0 0 0 0
0 0 0 0 0 0 0 0 0 0 0 0 0 0 0 0 0 0 0 0 0 0 0 0 0 0 0 0 0 0 0 0 0 0 0 0 0 0
0 0 0 0 0 0 0 0 0 0 0 0 0 0 0 0 0 0 0 0 0 0 0 0 0 0 0 0 0 0 0 0 0 0 0 0 0 0
0 0 0 0 0 0 0 0 0 0 0 0 0 0 0 0 0 0 0 0 0 0 0 0 0 0 0 0 0 0 0 0 0 0 0 0 0 0
0 0 0 0 0 0 0 0 0 0 0 0 0 0 0 0 0 0 0 0 0 0 0 0 0 0 0 0 0 0 0 0 0 0 0 0 0 0
0 0 0 0 0 0 0 0 0 0 0 0 0 0 0 0 0 0 0 0 0 0 0 0 0 0 0 0 0 0 0 0 0 0 0 0 0 0
0 0 0 0 0 0 0 0 0 0 0 0 0 0 0 0 0 0 0 0 0 0 0 0 0 0 0 0 0 0 0 0 0 0 0 0 0 0
0 0 0 0 0 0 0 0 0 0 0 0 0 0 0 0 0 0 0 0 0 0 0 0 0 0 0 0 0 0 0 0 0 0 0 0 0 0
0 0 0 0 0 0 0 0 0 0 0 0 0 0 0 0 0 0 0 0 0 0 0 0 0 0 0 0 0 0 0 0 0 0 0 0 0 0
0 0 0 0 0 0 0 0 0 0 0 0 0 0 0 0 0 0 0 0 0 0 0 0 0 0 0 0 0 0 0 0 0 0 0 0 0 0
0 0 0 0 0 0 0 0 0 0 0 0 0 0 0 0 0 0 0 0 0 0 0 0 0 0 0 0 0 0 0 0 0 0 0 0 0 0
0 0 0 0 0 0 0 0 0 0 0 0 0 0 0 0 0 0 0 0 0 0 0 0 0 0 0 0 0 0 0 0 0 0 0 0 0 0
0 0 0 0 0 0 0 0 0 0 0 0 0 0 0 0 0 0 0 0 0 0 0 0 0 0 0 0 0 0 0 0 0 0 0 0 0 0
Height
5696 5693 5689 5685 5681 5677 5672 5667 5663 5659 5656 5650 5642 5635 5628 5622 5615 5608 5602 5595 5588 5581 5574 5567 5560 5553 5547 5540 5533 5527 5520 5514 5508 5503 5497 5493 5490 5487
5685 5682 5678 5674 5669 5664 5659 5654 5648 5643 5639 5634 5627 5619 5612 5605 5597 5590 5583 5575 5567 5559 5551 5543 5536 5528 5520 5512 5505 5498 5491 5484 5478 5473 5468 5464 5460 5458
5675 5671 5667 5662 5657 5651 5646 5640 5634 5627 5623 5617 5609 5601 5593 5585 5578 5570 5562 5554 5545 5535 5526 5517 5509 5500 5492 5483 5476 5469 5462 5456 5451 5446 5442 5439 5436 5435
5664 5660 5655 5650 5644 5639 5632 5626 5619 5612 5606 5600 5593 5583 5574 5565 5558 5550 5541 5531 5521 5511 5500 5491 5482 5472 5463 5455 5448 5442 5437 5432 5428 5424 5421 5419 5417 5416
5653 5648 5643 5637 5631 5625 5618 5611 5604 5596 5588 5581 5574 5565 5556 5545 5537 5529 5519 5508 5495 5483 5474 5465 5455 5446 5438 5431 5425 5420 5415 5411 5408 5405 5403 5401 5400 5400
5641 5636 5630 5624 5618 5611 5604 5596 5589 5580 5571 5563 5555 5547 5537 5525 5516 5507 5499 5485 5472 5457 5448 5439 5431 5423 5415 5409 5405 5400 5396 5393 5390 5389 5387 5386 5385 5385
5629 5623 5617 5611 5604 5597 5589 5581 5572 5563 5554 5545 5537 5527 5516 5505 5494 5483 5474 5464 5451 5434 5426 5418 5410 5403 5396 5390 5386 5382 5379 5377 5375 5373 5372 5371 5370 5370
5617 5610 5604 5597 5589 5581 5573 5564 5554 5544 5535 5526 5516 5505 5494 5482 5471 5459 5449 5441 5432 5417 5407 5402 5391 5387 5380 5374 5369 5366 5363 5361 5359 5357 5356 5355 5354 5355
5604 5598 5591 5583 5575 5566 5557 5548 5537 5525 5514 5505 5494 5482 5471 5460 5449 5438 5426 5417 5409 5397 5390 5387 5378 5373 5366 5359 5354 5350 5348 5346 5344 5342 5341 5340 5339 5339
5591 5585 5577 5568 5559 5551 5542 5532 5520 5508 5496 5484 5473 5461 5448 5436 5425 5416 5406 5399 5392 5381 5371 5371 5365 5360 5354 5345 5338 5335 5333 5331 5329 5328 5326 5326 5325 5325
5578 5570 5562 5554 5544 5535 5526 5516 5504 5490 5476 5463 5450 5438 5426 5414 5404 5397 5389 5382 5378 5370 5357 5353 5350 5345 5341 5333 5324 5318 5316 5316 5315 5313 5312 5311 5311 5311
5565 5556 5547 5538 5528 5517 5508 5497 5486 5473 5459 5445 5431 5418 5407 5397 5387 5379 5372 5366 5359 5354 5345 5338 5333 5327 5328 5323 5312 5304 5301 5300 5300 5299 5298 5298 5297 5298
5552 5542 5533 5523 5512 5501 5489 5478 5466 5454 5441 5428 5416 5404 5393 5383 5374 5365 5356 5349 5342 5336 5328 5322 5318 5312 5307 5308 5303 5293 5289 5287 5286 5286 5285 5285 5285 5286
5538 5529 5518 5507 5496 5484 5472 5460 5447 5435 5423 5412 5401 5391 5382 5372 5363 5353 5344 5335 5326 5319 5312 5306 5302 5297 5293 5290 5288 5284 5278 5275 5275 5274 5273 5273 5274 5274
5524 5513 5502 5491 5480 5467 5455 5443 5431 5419 5409 5399 5390 5381 5372 5362 5352 5343 5334 5325 5316 5305 5298 5292 5288 5284 5279 5276 5274 5272 5269 5267 5265 5264 5264 5264 5264 5264
5509 5498 5486 5475 5463 5451 5439 5427 5416 5407 5398 5390 5382 5373 5363 5353 5342 5333 5324 5315 5308 5299 5288 5281 5277 5273 5269 5266 5263 5262 5260 5259 5258 5256 5255 5255 5255 5255
5494 5483 5471 5459 5447 5435 5424 5415 5406 5398 5390 5382 5373 5365 5355 5345 5334 5324 5315 5306 5298 5292 5285 5277 5270 5266 5262 5259 5257 5254 5253 5252 5251 5249 5248 5249 5248 5247
5480 5469 5457 5446 5435 5424 5415 5407 5399 5391 5383 5375 5366 5357 5348 5338 5328 5318 5309 5300 5292 5285 5279 5273 5268 5263 5259 5255 5251 5249 5248 5246 5245 5244 5242 5242 5242 5240
5467 5456 5445 5435 5425 5417 5409 5401 5394 5386 5378 5369 5360 5351 5342 5332 5323 5314 5305 5296 5289 5281 5275 5269 5264 5260 5256 5253 5249 5245 5243 5242 5241 5239 5237 5236 5235 5234
5456 5445 5434 5425 5418 5410 5404 5397 5389 5382 5373 5364 5355 5346 5337 5328 5319 5311 5302 5294 5287 5280 5274 5268 5262 5258 5254 5251 5248 5244 5240 5238 5236 5234 5232 5230 5227 5225
5445 5435 5426 5419 5412 5406 5399 5392 5385 5377 5369 5360 5352 5343 5334 5325 5317 5309 5301 5294 5286 5280 5274 5268 5263 5257 5253 5249 5246 5242 5238 5233 5230 5228 5225 5223 5220 5217
5435 5427 5420 5413 5407 5402 5395 5388 5381 5373 5365 5357 5349 5340 5332 5324 5316 5308 5301 5294 5287 5280 5274 5268 5263 5257 5252 5248 5243 5239 5235 5231 5226 5222 5218 5216 5212 5209
5427 5420 5414 5409 5404 5398 5392 5385 5377 5370 5363 5355 5347 5339 5331 5323 5315 5308 5301 5294 5288 5282 5275 5269 5263 5257 5251 5246 5241 5236 5232 5228 5223 5219 5215 5210 5206 5203
Wind_Speed
45 46 47 48 50 52 53 54 55 55 55 56 58 61 63 64 66 68 69 70 71 72 74 76 78 80 82 83 85 86 86 87 87 87 87 87 86 85
46 47 49 50 52 54 55 57 58 59 60 60 62 63 65 66 68 69 70 72 73 76 78 81 83 84 86 87 87 87 86 85 84 82 80 78 75 73
47 49 51 53 55 57 58 59 61 62 63 64 66 68 69 70 70 72 73 75 77 81 83 85 87 88 88 87 85 83 80 77 74 71 68 65 63 61
48 50 53 55 57 59 60 61 63 65 66 67 68 70 71 72 73 75 77 80 83 85 87 88 88 87 84 81 77 73 70 67 64 60 57 55 54 52
50 52 54 57 59 60 61 63 65 67 68 70 70 71 72 75 77 79 81 85 87 89 89 87 84 80 75 72 68 64 61 57 54 52 50 49 48 47
52 54 57 58 60 61 63 65 66 68 70 71 72 73 75 78 81 83 84 86 86 86 84 80 75 70 67 64 60 56 53 50 48 46 45 45 45 45
54 56 58 59 61 63 65 66 68 69 71 73 74 76 79 82 85 86 86 83 80 79 75 70 66 62 59 57 53 50 48 46 45 44 44 44 44 44
55 57 59 61 63 65 66 68 70 72 74 76 78 80 83 85 86 86 83 78 71 68 65 60 58 55 53 51 50 49 47 45 44 43 43 43 43 43
56 58 60 62 64 65 67 69 71 74 77 79 81 83 85 85 85 81 76 70 63 59 57 52 52 50 49 49 49 49 47 45 43 43 42 41 41 41
57 59 60 62 64 66 68 70 73 76 79 81 84 85 85 83 78 72 65 59 53 52 53 50 48 47 46 48 49 49 47 45 43 42 41 40 40 40
57 59 61 63 66 68 70 72 74 78 81 83 84 82 78 73 67 61 56 53 49 49 52 51 48 47 45 46 48 49 47 45 42 40 39 38 38 38
57 60 63 65 67 70 72 74 76 78 79 78 77 73 67 62 58 55 53 52 50 49 50 50 49 48 43 41 44 46 45 43 41 38 37 36 36 36
58 60 63 66 68 70 73 75 76 76 75 72 67 61 57 55 53 53 53 53 52 51 50 49 47 45 43 39 38 41 41 41 39 37 35 33 32 32
59 62 64 66 69 72 74 75 74 72 68 61 56 52 50 50 51 51 51 51 51 50 49 48 45 42 40 37 35 35 37 37 35 32 31 30 29 29
61 63 65 67 70 72 73 72 68 62 56 50 47 46 47 48 49 49 48 48 48 48 47 44 41 38 36 32 29 29 30 31 31 29 27 27 26 24
62 64 67 69 70 71 68 62 56 50 45 42 42 44 46 46 46 45 44 43 41 40 41 40 36 32 28 26 25 24 25 25 26 27 25 24 23 23
62 64 66 67 67 63 56 50 45 41 40 40 41 43 43 43 43 43 41 39 36 33 32 33 32 28 25 23 21 20 20 20 21 22 22 22 23 23
62 62 63 62 57 50 45 41 38 37 38 39 41 41 40 40 39 38 37 35 33 31 29 27 25 24 23 22 20 17 15 15 16 18 19 19 21 24
59 60 58 53 46 41 37 35 34 36 37 38 38 38 38 37 37 35 34 32 30 28 26 24 22 20 17 16 18 18 14 13 14 16 18 19 20 23
57 56 50 44 39 34 32 32 33 35 36 36 37 36 36 35 33 32 30 29 27 25 24 23 21 19 16 14 14 17 17 14 14 16 18 19 20 23
54 48 41 36 31 29 30 31 33 34 34 35 35 34 33 32 31 30 29 27 26 25 23 22 21 19 17 16 16 17 19 19 17 16 16 17 18 20
46 40 34 29 27 27 29 31 32 32 33 34 33 32 31 31 30 29 27 26 25 24 23 22 21 20 20 19 18 17 17 18 18 17 16 16 16 17
39 32 27 24 24 27 29 30 30 31 31 32 31 31 30 29 28 27 26 25 25 24 23 22 22 21 21 20 19 17 16 16 16 17 17 16 16 15
Wind_Direction
288 290 292 293 293 293 294 294 294 294 293 294 294 295 296 296 296 296 296 295 295 294 294 293 293 292 292 291 290 288 287 285 284 282 281 279 277 275
288 290 291 292 293 294 295 295 295 295 295 296 296 296 297 297 297 296 296 296 296 295 295 295 294 293 293 292 291 289 288 286 285 283 281 279 276 274
288 290 291 292 293 294 295 296 296 296 297 298 298 299 299 298 298 298 298 298 298 297 297 296 296 295 294 293 291 290 288 287 285 283 280 277 274 272
288 289 291 292 294 295 295 296 297 297 298 299 299 299 300 299 299 299 299 299 299 298 298 297 297 296 295 293 291 290 288 286 284 281 277 274 272 270
288 289 291 292 293 295 296 297 298 299 299 300 300 300 300 300 300 300 301 301 301 300 299 298 297 296 294 292 292 290 287 284 282 278 275 273 270 268
286 289 291 293 294 296 297 298 299 300 300 301 301 301 301 300 301 301 302 302 301 300 299 298 297 295 294 293 292 289 286 283 280 277 274 271 269 267
287 290 292 294 296 298 299 300 300 301 301 301 302 301 301 301 302 302 302 302 301 299 298 297 296 295 294 293 291 288 286 283 280 277 274 271 269 266
289 292 294 296 298 299 301 301 302 302 302 303 303 303 303 303 303 303 303 302 300 297 297 296 295 294 294 292 290 289 287 285 282 279 276 273 269 265
292 294 296 299 300 301 302 303 303 304 304 304 304 304 304 304 304 304 303 302 300 297 295 294 293 293 292 290 288 288 287 285 283 280 277 274 269 266
295 297 299 301 302 303 303 304 304 304 304 305 305 306 305 305 305 305 303 302 300 297 295 295 293 292 291 290 288 287 285 284 283 280 276 272 269 266
298 300 302 303 304 304 304 305 306 306 306 306 307 307 307 307 306 305 304 302 300 298 296 296 294 292 291 290 288 287 286 284 283 280 276 272 268 265
302 304 305 305 305 305 306 306 307 307 307 308 309 308 308 308 307 306 305 304 302 299 297 296 295 293 290 288 287 286 285 284 283 281 277 272 268 264
304 305 306 306 306 306 307 308 309 309 309 309 309 309 309 309 309 308 308 307 305 304 301 299 297 295 293 288 283 283 283 283 282 281 277 273 268 264
306 307 307 308 308 308 309 310 310 311 311 311 311 311 311 311 311 310 309 309 308 306 304 302 301 298 295 291 285 280 280 281 281 280 278 276 272 266
308 309 309 309 310 311 311 312 312 313 313 314 314 314 314 314 313 313 312 311 311 309 308 307 306 304 300 295 288 281 278 279 281 280 279 277 274 268
310 310 311 311 312 313 314 314 315 316 317 317 318 318 319 319 318 318 317 315 314 312 311 312 312 310 307 301 295 286 281 278 278 281 279 277 275 270
312 312 313 314 315 316 317 318 320 321 321 322 322 323 324 324 324 323 323 322 320 318 315 315 317 318 314 309 302 294 287 282 278 276 275 275 275 274
315 315 316 317 319 320 321 323 324 325 326 326 326 327 328 329 329 329 329 329 328 326 324 322 320 320 318 317 311 304 298 292 283 279 277 274 274 275
318 318 319 320 321 323 324 326 328 329 329 330 331 332 333 334 334 335 335 335 335 334 333 331 330 327 322 317 313 315 312 303 292 287 286 283 276 273
320 321 321 322 324 326 328 330 331 332 333 334 336 337 338 339 340 341 342 343 344 344 343 341 341 340 335 327 318 316 319 312 300 294 291 287 282 278
322 323 323 324 326 328 331 332 334 336 337 339 340 341 342 343 345 346 348 349 350 350 350 349 348 347 344 338 330 323 320 318 315 308 300 293 289 286
324 324 324 326 328 331 333 335 337 339 340 341 343 344 345 347 348 349 351 352 353 354 354 353 351 348 345 341 336 331 326 323 322 320 315 308 302 297
325 325 325 327 331 334 336 338 339 341 342 344 345 346 347 349 351 352 353 354 356 356 356 355 352 349 346 345 344 341 337 332 328 324 322 320 317 314